Home > Weather > Exeter > Past weeks

Flag for United Kingdom Past Weather in Exeter, England, United Kingdom — Yesterday and Last 2 Weeks

Now
36 °F

Fog.


Feels Like: 36 °F
Forecast: 44 / 65 °F
Wind: 1 mph from Southeast

Location: Yeovilton

Current Time: May 26, 2016 at 5:52:58 AM

Latest Report: May 26, 2016 at 4:50 AM


Visibility: 0 mi

Pressure: 30.01 "Hg

Humidity: 100%

Dew Point: 36 °F

Location of ExeterLocation

Past Weather in Exeter — Graph

°F

Exeter Temperature Yesterday

Maximum temperature yesterday: 55 °F (at 1:50 PM)
Minimum temperature yesterday: 43 °F (at 4:50 AM)
Average temperature yesterday: 50 °F

High & Low Weather Summary for the Past Weeks

 TemperatureHumidityPressure
High72 °F (May 12, 2:50 PM)100% (May 11, 4:50 AM)30.21 "Hg (May 11, 4:50 AM)
Low36 °F (May 26, 4:50 AM)41% (May 14, 4:50 PM)29.56 "Hg (May 11, 4:50 PM)
Average54 °F78%29.93 "Hg
* Reported May 11 4:50 AM — May 26 4:50 AM, Exeter, Weather by CustomWeather, © 2016

Note: Actual official high and low records may vary slightly from our data, if they occured in-between our weather recording intervals... More about our weather records

Advertising

Exeter Weather History for the Previous 24 Hours

Scroll right to see more
 ConditionsComfort  
Time TempWeatherWind HumidityBarometerVisibility
4:50 AM
Thu, May 26
36 °FFog.1 mph100%30.01 "Hg0 mi
3:50 AM37 °FFog.1 mph100%30.01 "Hg0 mi
2:50 AM39 °FClear.No wind100%30.01 "Hg1 mi
1:50 AM41 °FFog.1 mph93%30.01 "HgN/A
12:50 AM43 °FClear.1 mph93%30.01 "Hg10 mi
11:50 PM
Wed, May 25
45 °FClear.1 mph93%30.01 "Hg10 mi
10:50 PM48 °FPassing clouds.3 mph87%30.01 "HgN/A
9:50 PM48 °FScattered clouds.6 mph87%30.04 "HgN/A
8:50 PM52 °FPartly sunny.8 mph77%30.01 "HgN/A
7:50 PM54 °FPartly sunny.9 mph72%30.01 "HgN/A
6:50 PM55 °FPartly sunny.9 mph67%30.01 "HgN/A
5:50 PM55 °FPartly sunny.10 mph63%30.01 "HgN/A
4:50 PM55 °FPartly sunny.13 mph59%30.01 "HgN/A
3:50 PM55 °FPartly sunny.10 mph59%30.04 "HgN/A
2:50 PM55 °FPartly sunny.12 mph55%30.04 "HgN/A
1:50 PM55 °FPartly sunny.12 mph55%30.04 "HgN/A
12:50 PM54 °FPartly sunny.12 mph58%30.04 "HgN/A
11:50 AM54 °FPartly sunny.9 mph54%30.04 "HgN/A
10:50 AM52 °FPartly sunny.10 mph58%30.07 "HgN/A
9:50 AM50 °FPartly sunny.12 mph62%30.07 "HgN/A
8:50 AM50 °FPartly sunny.13 mph67%30.09 "HgN/A
7:50 AM48 °FPartly sunny.8 mph76%30.09 "HgN/A
6:50 AM45 °FPartly sunny.7 mph81%30.09 "HgN/A
5:50 AM43 °FPassing clouds.9 mph87%30.07 "HgN/A
Weather by CustomWeather, © 2016

See weather overviewHow to use our weather pages